パンスターズ彗星

P/2010 T8 ( PanSTARRS )

English version
Home page
Updated on July 27, 2024

---------------------------------------------------------------------

・ プロフィール

符号 P/2010 T8

・ 軌道要素

                    Epoch = 2009 July 28.0 TT
     T = 2009 July 23.18056 TT        Peri. =  48.23299
     e = 0.3489598                    Node  = 245.83919 2000.0
     q = 2.4993989 AU                 Incl. =   7.77159
       a =  3.8390853 AU   n = 0.13102749   P =   7.52 years

・ 光度変化

        m1 = 15.5 + 5 logΔ + 10.0 log r

---------------------------------------------------------------------

軌道要素は、CBET 5411に掲載されたものです。
光度グラフはComet for Windowsで作成したものです。

---------------------------------------------------------------------

Copyright(C) Seiichi Yoshida (comet@aerith.net). All rights reserved.